Regional Weather Roundup
Issued by NWS

Home | Current Version | Previous Version | Text Only | Print | Product List | Glossary Off
Versions: 1 2 3 4 5 6 7 8 9 10 11 12 13 14 15 16 17 18 19 20 21 22 23 24 25 26 27 28 29 30 31 32 33 34 35 36 37 38 39 40 41 42 43 44 45 46 47 48 49 50

000
ASUS43 KOAX 240902
RWRNE

WEATHER ROUNDUP FOR NEBRASKA
NATIONAL WEATHER SERVICE OMAHA NE
300 AM CST MON NOV 24 2014

NOTES: SATELLITE DATA IS BEING USED TO AUGMENT CLOUD COVER ABOVE
       12000 FEET.
       "FAIR" INDICATES FEW OR NO CLOUDS BELOW 12,000 FEET WITH NO
       SIGNIFICANT WEATHER AND/OR OBSTRUCTIONS TO VISIBILITY.

  * THESE STATIONS DO NOT REPORT WEATHER SUCH AS RAIN...SNOW OR FOG.

NEZ001>004-019>022-054>056-241000-
NEBRASKA PANHANDLE

CITY           SKY/WX    TMP DP  RH WIND       PRES   REMARKS
SCOTTSBLUFF    CLEAR     24  16  71 NW12      29.81R WCI  13
ALLIANCE       CLEAR     26  16  65 W17       29.75R WCI  13
CHADRON        CLEAR     26  18  71 W15       29.78R WCI  14
KIMBALL        CLEAR     28  13  53 W22G28    29.79S WCI  13
SIDNEY         CLEAR     27  14  58 NW17      29.79R WCI  14
$$

NEZ057>060-069>072-079>082-241000-
SOUTHWEST NEBRASKA

CITY           SKY/WX    TMP DP  RH WIND       PRES   REMARKS
NORTH PLATTE   CLEAR     31  19  61 NW15      29.70R WCI  20
IMPERIAL       CLEAR     30  15  53 W16       29.76S WCI  19
LEXINGTON      CLOUDY    33  21  61 NW16      29.67R WCI  22
MCCOOK         PTCLDY    35  19  52 W20G29    29.72F WCI  24
$$

NEZ005>010-023>029-035>040-094-241000-
NORTH CENTRAL NEBRASKA

CITY           SKY/WX    TMP DP  RH WIND       PRES   REMARKS
VALENTINE      PTCLDY    23  18  81 N9        29.69R WCI  13
AINSWORTH      CLEAR     23  18  78 NW23G29   29.66R WCI   8
BROKEN BOW     PTCLDY    33  22  63 NW28G38   29.63S WCI  20
ORD            CLEAR     28  18  66 NW20G28   29.63R WCI  15
$$

NEZ041-046>049-061>064-073>077-083>087-241000-
SOUTH CENTRAL NEBRASKA

CITY           SKY/WX    TMP DP  RH WIND       PRES   REMARKS
AURORA         CLEAR     30  21  69 NW13      29.61S WCI  20
HASTINGS       PTCLDY    33  22  63 NW13      29.63R WCI  24
HOLDREGE       MOCLDY    32  20  61 W14       29.66R WCI  22
KEARNEY *      CLOUDY    32  21  64 W10       29.66S WCI  24
YORK           CLEAR     28  23  80 NW16      29.61R WCI  17
$$

NEZ011>018-030>034-042>045-241000-
NORTHEAST NEBRASKA

CITY           SKY/WX    TMP DP  RH WIND       PRES   REMARKS
NORFOLK        CLOUDY    29  20  69 NW20G28   29.56R WCI  16
ALBION         CLOUDY    31  20  64 NW23G31   29.58S WCI  17
BLAIR          CLOUDY    30  19  63 NW20G26   29.54R WCI  18
COLUMBUS *     CLOUDY    30  19  64 NW15      29.59S WCI  19
FREMONT        CLOUDY    31  20  63 NW24G35   29.58R WCI  17
TEKAMAH        CLOUDY    30  20  66 NW21G31   29.56R WCI  17
$$

NEZ050>053-065>068-078-088>093-241000-
SOUTHEAST NEBRASKA

CITY           SKY/WX    TMP DP  RH WIND       PRES   REMARKS
LINCOLN        CLOUDY    33  20  58 NW23G31   29.60R WCI  21
OMAHA EPPLEY   CLOUDY    31  20  63 NW24G30   29.56R WCI  17
BEATRICE       PTCLDY    31  22  68 NW16      29.61R WCI  20
FALLS CITY     CLOUDY    33  22  63 NW18      29.56R WCI  22
NEBRASKA CITY  MOCLDY    31  21  66 NW12      29.55S WCI  22
$$

NEZ044-045-051>053-067-241000-
OMAHA AREA

CITY           SKY/WX    TMP DP  RH WIND       PRES   REMARKS
OMAHA EPPLEY   CLOUDY    31  20  63 NW24G30   29.56R WCI  17
BLAIR          CLOUDY    30  19  63 NW20G26   29.54R WCI  18
FREMONT        CLOUDY    31  20  63 NW24G35   29.58R WCI  17
OFFUTT AFB     CLOUDY    31  20  62 NW15G25   29.55R WCI  21
WAHOO          CLOUDY    32  19  59 NW20G30   29.57R WCI  20
$$



USA.gov is the U.S. government's official web portal to all federal, state and local government web resources and services.